period_start,C,m1,H,J0,J1,J2,J3,J4,J5,JA,JB,JC,JD,JJ,JK,JN,#
2014-08-17 00:02:23,-0.00,0.72,0.00,26.90,31.35,33.58,9.33,41.17,1001.48,2021.98,3135.00,3096.02,3332.00,499.65,482.68,34.01,0000 0000 0000 0000 000000
2014-08-17 00:07:23,0.00,0.72,0.00,26.93,31.35,33.58,9.32,41.32,1001.48,2021.99,3135.00,3096.00,3331.98,500.01,483.09,34.06,0000 0000 0000 0000 000000
2014-08-17 00:12:24,-0.00,0.72,0.00,26.96,31.35,33.57,9.37,41.28,1001.49,2021.98,3135.00,3096.00,3331.97,500.33,483.17,34.10,0000 0000 0000 0000 000000
2014-08-17 00:17:25,0.00,0.72,0.00,26.97,31.35,33.59,9.27,41.37,1001.67,2021.98,3135.01,3096.00,3331.99,499.98,482.99,34.14,0000 0000 0000 0000 000000
2014-08-17 00:22:26,0.00,0.72,0.00,26.98,31.35,33.59,9.33,41.43,1001.76,2021.98,3135.00,3096.00,3331.97,499.92,482.94,34.18,0000 0000 0000 0000 000000
2014-08-17 00:27:27,-0.00,0.72,0.00,27.00,31.35,33.59,9.30,41.36,1001.83,2021.95,3135.00,3095.99,3331.98,500.06,483.02,34.22,0000 0000 0000 0000 000000
2014-08-17 00:32:28,-0.00,0.72,0.00,27.01,31.35,33.61,9.38,41.38,1001.97,2021.93,3135.01,3095.98,3331.98,499.53,482.57,34.26,0000 0000 0000 0000 000000
2014-08-17 00:37:29,-0.00,0.72,0.00,27.02,31.36,33.61,9.37,41.48,1001.97,2021.92,3135.21,3095.98,3331.99,499.79,482.75,34.31,0000 0000 0000 0000 000000
2014-08-17 00:42:31,-0.02,0.72,0.00,27.03,31.37,33.61,9.31,41.30,1001.99,2021.75,3135.09,3095.97,3331.97,500.17,483.04,34.35,0000 0000 0000 0000 000000
2014-08-17 00:47:32,0.01,0.72,0.00,27.02,31.37,33.63,9.32,41.39,1001.99,2021.74,3135.07,3095.94,3331.97,499.98,482.98,34.39,0000 0000 0000 0000 000000
2014-08-17 00:52:33,-0.03,0.71,0.00,27.00,31.37,33.63,9.27,41.21,1002.36,2021.50,3135.08,3095.89,3331.94,500.06,483.33,34.43,0000 0000 0000 0000 000000
2014-08-17 00:57:34,0.00,0.71,0.00,26.99,31.37,33.63,9.36,41.54,1002.46,2021.51,3135.16,3095.89,3331.97,500.17,483.53,34.47,0000 0000 0000 0000 000000
2014-08-17 01:02:35,-0.02,0.71,0.00,27.00,31.37,33.65,9.30,41.52,1002.46,2021.31,3135.39,3095.81,3331.97,499.73,482.96,34.51,0000 0000 0000 0000 000000
2014-08-17 01:07:36,-0.02,0.71,0.00,27.01,31.37,33.65,9.40,41.62,1002.46,2021.17,3135.60,3095.76,3331.98,500.57,483.67,34.56,0000 0000 0000 0000 000000
2014-08-17 01:12:38,-0.00,0.71,0.00,27.02,31.37,33.65,9.37,41.57,1002.56,2021.05,3135.70,3095.54,3331.97,500.25,483.56,34.60,0000 0000 0000 0000 000000
2014-08-17 01:17:39,0.00,0.71,0.00,27.03,31.37,33.63,9.35,41.43,1002.48,2021.04,3135.77,3095.23,3331.97,499.83,483.15,34.64,0000 0000 0000 0000 000000
2014-08-17 01:22:40,0.01,0.71,0.00,27.02,31.37,33.65,9.40,41.51,1002.78,2021.00,3135.63,3095.10,3331.88,499.84,483.14,34.68,0000 0000 0000 0000 000000
2014-08-17 01:27:41,0.01,0.71,0.00,27.00,31.37,33.65,9.35,41.33,1002.94,2021.01,3135.44,3095.05,3331.82,500.16,483.57,34.72,0000 0000 0000 0000 000000
2014-08-17 01:32:42,0.00,0.71,0.00,26.99,31.37,33.64,9.34,41.42,1003.22,2021.01,3135.24,3095.05,3331.74,499.95,483.43,34.76,0000 0000 0000 0000 000000
2014-08-17 01:37:43,-0.01,0.71,0.00,26.97,31.37,33.65,9.40,41.70,1003.42,2021.01,3135.45,3095.07,3331.87,500.18,483.75,34.80,0000 0000 0000 0000 000000
2014-08-17 01:42:44,0.00,0.71,0.00,26.98,31.37,33.65,9.31,41.56,1003.43,2021.01,3135.48,3095.08,3331.84,499.66,483.42,34.85,0000 0000 0000 0000 000000
2014-08-17 01:47:46,0.01,0.71,0.00,26.98,31.37,33.65,9.38,41.63,1003.43,2021.01,3135.34,3095.04,3331.74,500.33,483.89,34.89,0000 0000 0000 0000 000000
2014-08-17 01:52:47,0.00,0.71,0.00,26.97,31.37,33.65,9.41,41.54,1003.44,2021.00,3135.16,3095.00,3331.31,500.35,484.08,34.93,0000 0000 0000 0000 000000
2014-08-17 01:57:48,-0.01,0.71,0.00,26.97,31.37,33.65,9.37,41.50,1003.63,2021.00,3135.32,3095.00,3331.43,500.24,484.25,34.97,0000 0000 0000 0000 000000
2014-08-17 02:02:49,0.00,0.71,0.00,26.98,31.37,33.66,9.36,41.81,1003.67,2021.00,3135.31,3095.01,3331.45,500.03,483.90,35.01,0000 0000 0000 0000 000000
2014-08-17 02:07:51,-0.01,0.71,0.00,26.98,31.37,33.65,9.34,41.52,1003.63,2021.00,3135.52,3095.00,3331.41,499.81,483.58,35.05,0000 0000 0000 0000 000000
2014-08-17 02:12:52,0.00,0.71,0.00,26.96,31.37,33.65,9.41,41.63,1003.83,2021.00,3135.41,3095.00,3331.31,500.26,484.12,35.10,0000 0000 0000 0000 000000
2014-08-17 02:17:53,-0.00,0.71,0.00,26.93,31.37,33.64,9.38,41.29,1003.91,2021.00,3135.51,3095.00,3331.26,499.71,483.70,35.14,0000 0000 0000 0000 000000
2014-08-17 02:22:54,0.01,0.71,0.00,26.94,31.37,33.65,9.34,41.55,1003.94,2021.00,3135.34,3095.00,3331.09,499.97,484.01,35.18,0000 0000 0000 0000 000000
2014-08-17 02:27:55,0.00,0.71,0.00,26.93,31.37,33.63,9.38,41.53,1003.97,2021.00,3135.12,3094.99,3331.04,500.06,484.17,35.22,0000 0000 0000 0000 000000
2014-08-17 02:32:56,-0.00,0.71,0.00,26.91,31.37,33.63,9.35,41.22,1003.95,2021.00,3135.19,3094.97,3331.01,500.10,484.25,35.26,0000 0000 0000 0000 000000
2014-08-17 02:37:57,0.00,0.71,0.00,26.91,31.37,33.64,9.34,41.09,1003.96,2021.00,3135.17,3094.96,3331.02,500.09,484.28,35.30,0000 0000 0000 0000 000000
2014-08-17 02:42:59,0.01,0.71,0.00,26.92,31.37,33.62,9.36,41.12,1004.12,2021.00,3135.03,3094.75,3331.00,499.65,483.66,35.35,0000 0000 0000 0000 000000
2014-08-17 02:48:00,0.00,0.71,0.00,26.91,31.37,33.63,9.34,41.02,1004.18,2020.98,3135.02,3094.49,3331.00,500.12,484.24,35.39,0000 0000 0000 0000 000000
2014-08-17 02:53:01,0.00,0.71,0.00,26.90,31.37,33.63,9.30,40.88,1004.22,2020.99,3135.01,3094.23,3330.99,499.85,484.08,35.43,0000 0000 0000 0000 000000
2014-08-17 02:58:02,0.00,0.71,0.00,26.90,31.35,33.61,9.36,41.04,1004.38,2020.98,3135.00,3094.19,3330.97,500.14,484.42,35.47,0000 0000 0000 0000 000000
2014-08-17 03:03:03,0.00,0.72,0.00,26.92,31.35,33.63,9.31,40.97,1004.40,2020.98,3135.00,3094.04,3330.93,500.12,484.48,35.51,0000 0000 0000 0000 000000
2014-08-17 03:08:05,0.00,0.72,0.00,26.89,31.35,33.61,9.35,40.91,1004.41,2020.99,3135.00,3094.03,3330.89,499.97,484.21,35.55,0000 0000 0000 0000 000000
2014-08-17 03:13:06,0.00,0.72,0.00,26.87,31.35,33.62,9.37,40.85,1004.41,2020.99,3135.00,3094.02,3330.81,500.35,484.60,35.60,0000 0000 0000 0000 000000
2014-08-17 03:18:07,0.01,0.72,0.00,26.86,31.35,33.61,9.29,41.01,1004.41,2020.98,3134.99,3094.01,3330.50,499.31,483.88,35.64,0000 0000 0000 0000 000000
2014-08-17 03:23:09,0.00,0.72,0.00,26.83,31.35,33.61,9.38,40.98,1004.43,2020.99,3134.95,3094.00,3330.20,500.08,484.60,35.68,0000 0000 0000 0000 000000
2014-08-17 03:28:10,0.00,0.72,0.00,26.84,31.34,33.60,9.36,40.96,1004.44,2020.99,3134.86,3094.00,3330.05,499.76,484.25,35.72,0000 0000 0000 0000 000000
2014-08-17 03:33:12,0.00,0.72,0.00,26.84,31.33,33.59,9.42,40.91,1004.45,2020.99,3134.42,3094.00,3330.01,500.17,484.79,35.76,0000 0000 0000 0000 000000
2014-08-17 03:38:13,-0.00,0.72,0.00,26.81,31.32,33.58,9.37,40.96,1004.67,2020.99,3134.45,3094.00,3330.01,500.02,484.50,35.80,0000 0000 0000 0000 000000
2014-08-17 03:43:14,0.01,0.72,0.00,26.81,31.32,33.59,9.34,40.88,1004.88,2020.99,3134.09,3093.98,3330.00,499.92,484.60,35.85,0000 0000 0000 0000 000000
2014-08-17 03:48:15,0.00,0.72,0.00,26.82,31.32,33.57,9.34,40.93,1004.90,2020.99,3134.03,3093.98,3330.00,500.04,484.84,35.89,0000 0000 0000 0000 000000
2014-08-17 03:53:16,-0.00,0.72,0.00,26.82,31.32,33.58,9.31,40.79,1004.90,2020.99,3134.06,3093.97,3330.00,499.56,484.36,35.93,0000 0000 0000 0000 000000
2014-08-17 03:58:17,0.00,0.72,0.00,26.80,31.31,33.58,9.40,40.98,1004.90,2020.99,3134.00,3093.90,3329.97,500.11,484.75,35.97,0000 0000 0000 0000 000000
2014-08-17 04:03:18,-0.00,0.72,0.00,26.80,31.30,33.57,9.34,40.98,1004.90,2020.99,3133.99,3093.81,3329.96,500.14,484.86,36.01,0000 0000 0000 0000 000000
2014-08-17 04:08:19,-0.00,0.72,0.00,26.78,31.30,33.57,9.36,40.99,1004.92,2020.99,3133.98,3093.84,3329.95,500.21,484.96,36.06,0000 0000 0000 0000 000000
2014-08-17 04:13:21,0.02,0.72,0.00,26.78,31.30,33.56,9.41,40.89,1004.95,2020.99,3133.91,3093.47,3329.70,499.91,484.67,36.10,0000 0000 0000 0000 000000
2014-08-17 04:18:22,-0.00,0.72,0.00,26.79,31.30,33.55,9.43,40.99,1005.07,2020.99,3133.88,3093.28,3329.53,500.30,485.24,36.14,0000 0000 0000 0000 000000
2014-08-17 04:23:23,0.01,0.72,0.00,26.81,31.29,33.54,9.34,40.92,1005.14,2020.99,3133.90,3093.20,3329.39,499.73,484.76,36.18,0000 0000 0000 0000 000000
2014-08-17 04:28:24,0.01,0.72,0.00,26.79,31.27,33.54,9.37,40.83,1005.32,2020.99,3133.62,3093.08,3329.12,500.23,485.16,36.22,0000 0000 0000 0000 000000
2014-08-17 04:33:25,-0.00,0.72,0.00,26.78,31.27,33.54,9.39,40.91,1005.37,2020.99,3133.57,3093.07,3329.11,499.60,484.53,36.26,0000 0000 0000 0000 000000
2014-08-17 04:38:26,0.00,0.72,0.00,26.78,31.27,33.54,9.36,40.78,1005.39,2020.99,3133.63,3093.04,3329.07,499.76,484.63,36.31,0000 0000 0000 0000 000000
2014-08-17 04:43:27,0.00,0.72,0.00,26.80,31.27,33.53,9.45,40.94,1005.39,2020.99,3133.41,3093.01,3329.01,500.14,484.94,36.35,0000 0000 0000 0000 000000
2014-08-17 04:48:28,0.00,0.72,0.00,26.79,31.27,33.51,9.38,40.94,1005.39,2020.99,3133.07,3093.00,3329.00,499.95,484.85,36.39,0000 0000 0000 0000 000000
2014-08-17 04:53:29,0.00,0.72,0.00,26.78,31.26,33.52,9.33,40.77,1005.39,2020.99,3133.08,3093.00,3329.00,499.82,484.74,36.43,0000 0000 0000 0000 000000
2014-08-17 04:58:31,-0.00,0.72,0.00,26.79,31.25,33.51,9.39,40.92,1005.39,2020.99,3133.12,3093.00,3329.00,499.99,484.98,36.47,0000 0000 0000 0000 000000
2014-08-17 05:03:32,0.00,0.72,0.00,26.79,31.25,33.51,9.44,40.97,1005.46,2020.99,3133.01,3093.00,3328.99,500.02,485.01,36.51,0000 0000 0000 0000 000000
2014-08-17 05:08:33,0.00,0.72,0.00,26.79,31.25,33.50,9.39,40.88,1005.65,2020.99,3133.00,3093.00,3328.97,499.52,484.88,36.56,0000 0000 0000 0000 000000
2014-08-17 05:13:34,0.00,0.72,0.00,26.77,31.25,33.49,9.40,40.74,1005.86,2020.99,3133.00,3092.94,3328.85,500.34,485.59,36.60,0000 0000 0000 0000 000000
2014-08-17 05:18:35,0.00,0.72,0.00,26.80,31.25,33.50,9.35,40.80,1005.88,2020.99,3132.99,3092.87,3328.59,500.33,485.52,36.64,0000 0000 0000 0000 000000
2014-08-17 05:23:36,0.02,0.72,0.00,26.81,31.25,33.51,9.36,40.85,1005.88,2020.99,3132.87,3092.79,3328.30,499.49,484.61,36.68,0000 0000 0000 0000 000000
2014-08-17 05:28:38,0.00,0.72,0.00,26.80,31.25,33.50,9.33,40.83,1005.89,2020.99,3132.74,3092.50,3328.06,500.42,485.46,36.72,0000 0000 0000 0000 000000
2014-08-17 05:33:39,0.01,0.72,0.00,26.79,31.24,33.50,9.36,40.82,1005.89,2020.99,3132.70,3092.19,3328.02,500.42,485.71,36.76,0000 0000 0000 0000 000000
2014-08-17 05:38:40,0.01,0.72,0.00,26.79,31.23,33.49,9.35,40.77,1005.87,2020.99,3132.35,3092.06,3328.00,499.50,484.76,36.81,0000 0000 0000 0000 000000
2014-08-17 05:43:41,0.00,0.72,0.00,26.78,31.23,33.50,9.34,40.76,1005.88,2020.99,3132.05,3092.00,3327.99,499.89,485.04,36.85,0000 0000 0000 0000 000000
2014-08-17 05:48:42,-0.00,0.72,0.00,26.78,31.23,33.50,9.35,40.84,1005.92,2020.99,3132.08,3092.00,3327.96,499.53,484.82,36.89,0000 0000 0000 0000 000000
2014-08-17 05:53:43,0.01,0.72,0.00,26.80,31.22,33.50,9.35,40.70,1005.94,2020.99,3132.00,3092.00,3327.79,500.15,485.36,36.93,0000 0000 0000 0000 000000
2014-08-17 05:58:44,0.00,0.72,0.00,26.81,31.22,33.50,9.36,40.85,1006.20,2020.99,3132.00,3091.97,3327.40,499.97,485.34,36.97,0000 0000 0000 0000 000000
2014-08-17 06:03:46,0.01,0.72,0.00,26.80,31.22,33.50,9.39,40.70,1006.35,2020.99,3132.00,3091.83,3327.11,499.95,485.79,37.01,0000 0000 0000 0000 000000
2014-08-17 06:08:46,0.01,0.72,0.00,26.77,31.22,33.49,9.43,40.73,1006.36,2020.99,3131.95,3091.56,3327.02,500.20,485.65,37.06,0000 0000 0000 0000 000000
2014-08-17 06:13:47,0.01,0.72,0.00,26.77,31.22,33.50,9.38,40.81,1006.37,2020.99,3131.79,3091.10,3327.00,500.05,485.63,37.10,0000 0000 0000 0000 000000
2014-08-17 06:18:48,0.01,0.73,0.00,26.79,31.22,33.50,9.34,40.67,1006.39,2020.99,3131.33,3091.00,3327.00,500.18,485.55,37.14,0000 0000 0000 0000 000000
2014-08-17 06:23:50,0.00,0.73,0.00,26.80,31.22,33.50,9.34,40.76,1006.44,2020.97,3131.07,3091.00,3326.77,500.00,485.58,37.18,0000 0000 0000 0000 000000
2014-08-17 06:28:51,0.01,0.73,0.00,26.78,31.22,33.49,9.39,40.82,1006.41,2020.99,3131.02,3090.95,3326.32,500.13,485.68,37.22,0000 0000 0000 0000 000000
2014-08-17 06:33:52,0.01,0.73,0.00,26.81,31.22,33.49,9.45,40.96,1006.55,2020.98,3130.96,3090.69,3326.02,500.19,485.77,37.26,0000 0000 0000 0000 000000
2014-08-17 06:38:53,0.02,0.73,0.00,26.80,31.22,33.48,9.35,40.88,1006.80,2020.98,3130.67,3090.15,3326.00,500.08,485.81,37.31,0000 0000 0000 0000 000000
2014-08-17 06:43:54,0.01,0.73,0.00,26.80,31.22,33.48,9.49,40.93,1006.85,2020.99,3130.22,3090.00,3325.86,500.07,485.94,37.35,0000 0000 0000 0000 000000
2014-08-17 06:48:55,0.01,0.73,0.00,26.81,31.22,33.49,9.36,40.74,1006.85,2020.98,3130.02,3089.98,3325.14,499.83,485.58,37.39,0000 0000 0000 0000 000000
2014-08-17 06:53:57,0.00,0.73,0.00,26.80,31.22,33.48,9.34,40.82,1006.85,2020.98,3129.99,3089.91,3325.01,500.14,485.89,37.43,0000 0000 0000 0000 000000
2014-08-17 06:58:58,0.02,0.73,0.00,26.80,31.22,33.49,9.36,40.87,1006.86,2020.98,3129.93,3089.52,3325.00,500.28,485.97,37.47,0000 0000 0000 0000 000000
2014-08-17 07:03:59,0.00,0.73,0.00,26.79,31.21,33.48,9.41,41.04,1006.87,2020.97,3129.93,3089.11,3324.97,500.27,485.98,37.51,0000 0000 0000 0000 000000
2014-08-17 07:09:00,0.02,0.73,0.00,26.79,31.21,33.47,9.37,40.77,1006.88,2020.97,3129.49,3089.01,3324.60,499.88,485.61,37.56,0000 0000 0000 0000 000000
2014-08-17 07:14:02,0.01,0.73,0.00,26.79,31.20,33.47,9.36,40.88,1006.88,2020.97,3129.23,3089.00,3324.10,499.87,485.44,37.60,0000 0000 0000 0000 000000
2014-08-17 07:19:03,0.00,0.73,0.00,26.82,31.20,33.48,9.34,40.91,1007.08,2020.99,3129.03,3088.99,3324.00,499.74,485.40,37.64,0000 0000 0000 0000 000000
2014-08-17 07:24:04,0.01,0.73,0.00,26.78,31.20,33.48,9.45,41.05,1007.28,2020.97,3129.00,3088.86,3323.99,499.96,485.73,37.68,0000 0000 0000 0000 000000
2014-08-17 07:29:05,0.01,0.73,0.00,26.79,31.20,33.48,9.40,41.03,1007.33,2020.98,3128.94,3088.62,3323.98,500.19,486.07,37.72,0000 0000 0000 0000 000000
2014-08-17 07:34:06,0.02,0.73,0.00,26.81,31.20,33.47,9.41,41.05,1007.34,2020.95,3128.86,3088.10,3323.72,500.05,485.99,37.76,0000 0000 0000 0000 000000
2014-08-17 07:39:07,0.02,0.73,0.00,26.80,31.20,33.47,9.45,40.88,1007.35,2020.96,3128.32,3088.01,3323.13,500.33,486.30,37.81,0000 0000 0000 0000 000000
2014-08-17 07:44:08,0.00,0.74,0.00,26.80,31.20,33.46,9.37,40.96,1007.37,2020.96,3128.02,3087.99,3323.00,499.88,485.71,37.85,0000 0000 0000 0000 000000
2014-08-17 07:49:10,0.00,0.74,0.00,26.79,31.20,33.47,9.36,40.87,1007.52,2020.95,3128.00,3087.97,3322.99,500.03,486.15,37.89,0000 0000 0000 0000 000000
2014-08-17 07:54:11,0.01,0.74,0.00,26.78,31.20,33.47,9.42,40.83,1007.58,2020.98,3127.96,3087.81,3322.91,499.90,486.00,37.93,0000 0000 0000 0000 000000
2014-08-17 07:59:12,0.01,0.74,0.00,26.78,31.20,33.46,9.40,40.83,1007.69,2020.97,3127.92,3087.48,3322.68,499.99,486.10,37.97,0000 0000 0000 0000 000000
2014-08-17 08:04:13,0.01,0.74,0.00,26.77,31.20,33.46,9.39,40.78,1007.82,2020.94,3127.86,3087.10,3322.22,500.47,486.58,38.01,0000 0000 0000 0000 000000
2014-08-17 08:09:14,0.01,0.74,0.00,26.75,31.20,33.46,9.38,40.83,1007.83,2020.90,3127.54,3087.03,3322.05,500.01,486.41,38.06,0000 0000 0000 0000 000000
2014-08-17 08:14:15,0.00,0.74,0.00,26.77,31.20,33.45,9.37,40.73,1007.83,2020.91,3127.47,3087.01,3322.00,500.10,486.23,38.10,0000 0000 0000 0000 000000
2014-08-17 08:19:16,0.01,0.74,0.00,26.77,31.19,33.46,9.43,40.77,1007.83,2020.95,3127.06,3087.00,3322.00,500.38,486.58,38.14,0000 0000 0000 0000 000000
2014-08-17 08:24:18,0.00,0.74,0.00,26.78,31.19,33.45,9.49,40.77,1007.83,2020.95,3127.01,3087.00,3322.00,500.27,486.45,38.18,0000 0000 0000 0000 000000
2014-08-17 08:29:19,0.00,0.74,0.00,26.75,31.18,33.47,9.36,40.73,1007.83,2020.96,3127.00,3087.00,3321.99,500.11,486.28,38.22,0000 0000 0000 0000 000000
2014-08-17 08:34:20,-0.00,0.74,0.00,26.76,31.18,33.46,9.46,40.69,1007.84,2020.93,3127.00,3086.99,3321.96,500.53,486.73,38.26,0000 0000 0000 0000 000000
2014-08-17 08:39:21,-0.00,0.74,0.00,26.75,31.17,33.46,9.42,40.68,1007.84,2020.91,3126.98,3086.96,3321.78,500.16,486.47,38.31,0000 0000 0000 0000 000000
2014-08-17 08:44:22,0.01,0.74,0.00,26.73,31.17,33.45,9.38,40.64,1007.85,2020.93,3126.94,3086.97,3321.70,499.71,486.03,38.35,0000 0000 0000 0000 000000
2014-08-17 08:49:23,0.01,0.74,0.00,26.71,31.17,33.46,9.36,40.71,1007.91,2020.96,3126.84,3086.95,3321.55,499.93,486.10,38.39,0000 0000 0000 0000 000000
2014-08-17 08:54:24,0.00,0.74,0.00,26.70,31.17,33.44,9.41,40.76,1008.02,2020.96,3126.80,3086.87,3321.34,500.23,486.64,38.43,0000 0000 0000 0000 000000
2014-08-17 08:59:25,0.03,0.74,0.00,26.71,31.17,33.44,9.36,40.83,1008.20,2020.96,3126.17,3086.50,3321.09,499.88,486.51,38.47,0000 0000 0000 0000 000000
2014-08-17 09:04:27,0.01,0.74,0.00,26.70,31.17,33.45,9.36,40.76,1008.28,2020.98,3126.03,3086.26,3321.01,500.18,486.65,38.51,0000 0000 0000 0000 000000
2014-08-17 09:09:28,0.16,0.74,0.00,26.70,31.17,33.45,9.43,40.70,1008.29,2020.98,3124.26,3084.83,3319.52,499.85,486.55,38.56,0000 0000 0000 0000 000000
2014-08-17 09:14:29,0.16,0.75,0.00,26.70,31.17,33.44,9.39,40.76,1008.31,2020.98,3121.25,3082.34,3316.80,499.68,486.30,38.60,0000 0000 0000 0000 000000
2014-08-17 09:19:30,0.02,0.76,0.00,26.68,31.17,33.43,9.36,40.67,1008.31,2020.98,3120.58,3081.98,3316.07,499.94,486.57,38.64,0000 0000 0000 0000 000000
2014-08-17 09:24:31,-0.00,0.76,0.00,26.67,31.17,33.44,9.37,40.58,1008.32,2020.99,3120.52,3081.95,3316.02,499.91,486.70,38.68,0000 0000 0000 0000 000000
2014-08-17 09:29:33,0.02,0.76,0.00,26.67,31.16,33.43,9.41,40.58,1008.33,2020.99,3120.09,3081.71,3316.00,499.71,486.29,38.72,0000 0000 0000 0000 000000
2014-08-17 09:34:34,0.01,0.76,0.00,26.69,31.15,33.44,9.37,40.56,1008.37,2020.99,3120.01,3081.23,3315.99,500.18,486.78,38.76,0000 0000 0000 0000 000000
2014-08-17 09:39:35,0.00,0.76,0.00,26.69,31.15,33.42,9.37,40.46,1008.48,2020.99,3120.02,3081.21,3315.99,499.90,486.70,38.81,0000 0000 0000 0000 000000
2014-08-17 09:44:36,0.00,0.76,0.00,26.70,31.15,33.42,9.47,40.66,1008.67,2020.99,3120.01,3081.07,3315.97,500.24,486.94,38.85,0000 0000 0000 0000 000000
2014-08-17 09:49:38,0.00,0.76,0.00,26.69,31.15,33.41,9.43,40.69,1008.76,2020.99,3120.00,3081.06,3315.94,500.12,486.85,38.89,0000 0000 0000 0000 000000
2014-08-17 09:54:39,0.00,0.76,0.00,26.70,31.15,33.41,9.42,40.75,1008.80,2020.99,3119.99,3081.01,3315.80,499.96,486.70,38.93,0000 0000 0000 0000 000000
2014-08-17 09:59:41,0.01,0.76,0.00,26.68,31.15,33.41,9.40,40.62,1008.81,2020.99,3119.70,3081.00,3315.30,500.06,486.96,38.97,0000 0000 0000 0000 000000
2014-08-17 10:04:42,0.01,0.76,0.00,26.66,31.14,33.40,9.42,40.58,1008.82,2020.99,3119.23,3081.00,3315.03,499.96,486.92,39.01,0000 0000 0000 0000 000000
2014-08-17 10:09:43,0.00,0.76,0.00,26.65,31.13,33.41,9.41,40.63,1008.84,2020.99,3119.03,3080.99,3315.00,500.30,487.14,39.06,0000 0000 0000 0000 000000
2014-08-17 10:14:44,0.00,0.76,0.00,26.63,31.12,33.41,9.54,40.73,1008.86,2020.99,3119.02,3080.94,3315.00,500.74,487.66,39.10,0000 0000 0000 0000 000000
2014-08-17 10:19:45,-0.00,0.76,0.00,26.62,31.12,33.40,9.37,40.62,1008.84,2020.99,3119.06,3080.94,3314.99,499.73,486.61,39.14,0000 0000 0000 0000 000000
2014-08-17 10:24:47,0.00,0.76,0.00,26.63,31.12,33.38,9.36,40.71,1008.87,2020.99,3119.04,3080.92,3314.99,500.08,486.93,39.18,0000 0000 0000 0000 000000
2014-08-17 10:29:48,0.00,0.76,0.00,26.61,31.12,33.37,9.41,40.85,1009.12,2020.99,3119.03,3080.91,3314.99,499.88,486.98,39.22,0000 0000 0000 0000 000000
2014-08-17 10:34:49,0.00,0.76,0.00,26.60,31.11,33.38,9.45,40.68,1009.29,2020.99,3119.00,3080.72,3314.95,500.43,487.61,39.26,0000 0000 0000 0000 000000
2014-08-17 10:39:50,-0.00,0.76,0.00,26.59,31.10,33.37,9.40,40.62,1009.30,2020.99,3119.00,3080.64,3314.92,499.91,487.14,39.31,0000 0000 0000 0000 000000
2014-08-17 10:44:51,0.02,0.76,0.00,26.59,31.10,33.37,9.45,40.70,1009.29,2020.99,3118.97,3080.38,3314.76,500.10,487.51,39.35,0000 0000 0000 0000 000000
2014-08-17 10:49:52,0.00,0.76,0.00,26.60,31.10,33.36,9.39,40.70,1009.29,2020.99,3118.97,3080.19,3314.65,499.77,487.12,39.39,0000 0000 0000 0000 000000
2014-08-17 10:54:53,-0.00,0.76,0.00,26.59,31.10,33.36,9.43,40.93,1009.29,2020.99,3118.97,3080.39,3314.78,500.40,487.53,39.43,0000 0000 0000 0000 000000
2014-08-17 10:59:55,0.02,0.76,0.00,26.59,31.09,33.35,9.43,40.66,1009.31,2021.00,3118.50,3080.12,3314.21,500.27,487.49,39.47,0000 0000 0000 0000 000000
2014-08-17 11:04:56,-0.00,0.76,0.00,26.59,31.07,33.35,9.42,40.66,1009.34,2021.00,3118.48,3080.05,3314.12,500.28,487.65,39.51,0000 0000 0000 0000 000000
2014-08-17 11:09:57,-0.03,0.76,0.00,26.59,31.07,33.33,9.37,40.67,1009.39,2021.00,3118.97,3080.28,3314.65,499.99,487.31,39.56,0000 0000 0000 0000 000000
2014-08-17 11:14:58,0.01,0.76,0.00,26.58,31.07,33.34,9.35,40.73,1009.37,2021.01,3118.96,3080.19,3314.52,499.91,487.11,39.60,0000 0000 0000 0000 000000
2014-08-17 11:19:59,0.01,0.76,0.00,26.57,31.07,33.34,9.38,40.58,1009.31,2021.02,3118.70,3080.09,3314.19,499.84,487.10,39.64,0000 0000 0000 0000 000000
2014-08-17 11:25:00,0.01,0.76,0.00,26.56,31.06,33.32,9.46,40.63,1009.31,2021.00,3118.09,3080.03,3314.02,500.29,487.49,39.68,0000 0000 0000 0000 000000
2014-08-17 11:30:02,0.00,0.76,0.00,26.53,31.05,33.31,9.41,40.69,1009.40,2021.02,3118.01,3080.01,3314.00,499.73,487.07,39.72,0000 0000 0000 0000 000000
2014-08-17 11:35:03,0.00,0.76,0.00,26.53,31.05,33.30,9.40,40.77,1009.57,2021.03,3118.00,3080.01,3314.01,500.16,487.86,39.76,0000 0000 0000 0000 000000
2014-08-17 11:40:04,-0.00,0.76,0.00,26.52,31.05,33.31,9.45,40.76,1009.64,2021.07,3118.00,3080.01,3314.00,500.42,487.95,39.81,0000 0000 0000 0000 000000
2014-08-17 11:45:05,0.00,0.76,0.00,26.50,31.04,33.31,9.42,40.73,1009.62,2021.05,3118.00,3080.01,3314.00,499.75,487.25,39.85,0000 0000 0000 0000 000000
2014-08-17 11:50:06,-0.00,0.76,0.00,26.52,31.02,33.30,9.35,40.71,1009.61,2021.04,3118.00,3080.00,3314.00,499.67,487.23,39.89,0000 0000 0000 0000 000000
2014-08-17 11:55:07,0.01,0.76,0.00,26.51,31.02,33.29,9.34,40.77,1009.61,2021.06,3118.00,3080.00,3314.00,499.41,486.91,39.93,0000 0000 0000 0000 000000
2014-08-17 12:00:08,0.00,0.76,0.00,26.50,31.02,33.28,9.49,40.85,1009.68,2021.16,3118.00,3080.01,3314.00,500.29,487.79,39.97,0000 0000 0000 0000 000000
2014-08-17 12:05:10,0.01,0.76,0.00,26.49,31.02,33.27,9.41,40.75,1009.74,2021.14,3117.99,3080.00,3314.00,499.92,487.43,40.01,0000 0000 0000 0000 000000
2014-08-17 12:10:11,0.03,0.76,0.00,26.47,31.00,33.28,9.45,40.85,1009.70,2021.36,3117.96,3080.00,3314.00,500.14,487.70,40.06,0000 0000 0000 0000 000000
2014-08-17 12:15:13,0.02,0.76,0.00,26.47,31.00,33.26,9.36,40.61,1009.65,2021.50,3117.92,3080.00,3314.00,500.16,487.89,40.10,0000 0000 0000 0000 000000
2014-08-17 12:20:13,0.03,0.77,0.00,26.47,31.00,33.26,9.38,40.65,1009.75,2021.74,3117.84,3080.00,3313.99,500.29,487.81,40.14,0000 0000 0000 0000 000000
2014-08-17 12:25:15,0.00,0.77,0.00,26.46,30.98,33.26,9.42,40.47,1009.78,2021.86,3117.67,3080.00,3313.98,499.93,487.65,40.18,0000 0000 0000 0000 000000
2014-08-17 12:30:16,0.01,0.77,0.00,26.45,30.97,33.24,9.45,40.62,1009.78,2021.92,3117.76,3080.00,3313.99,499.87,487.69,40.22,0000 0000 0000 0000 000000
2014-08-17 12:35:17,0.00,0.77,0.00,26.44,30.97,33.24,9.46,40.58,1009.78,2021.97,3117.76,3080.00,3313.99,500.49,488.12,40.26,0000 0000 0000 0000 000000
2014-08-17 12:40:18,0.01,0.77,0.00,26.42,30.96,33.23,9.45,40.79,1009.78,2021.98,3117.24,3080.00,3313.99,500.38,487.90,40.31,0000 0000 0000 0000 000000
2014-08-17 12:45:19,-0.00,0.77,0.00,26.41,30.95,33.22,9.46,40.49,1009.78,2021.98,3117.14,3080.00,3313.99,500.03,487.82,40.35,0000 0000 0000 0000 000000
2014-08-17 12:50:21,-0.00,0.77,0.00,26.39,30.95,33.21,9.44,40.69,1009.85,2021.97,3117.06,3080.00,3313.98,499.83,487.65,40.39,0000 0000 0000 0000 000000
2014-08-17 12:55:22,0.00,0.77,0.00,26.38,30.93,33.20,9.45,40.63,1009.96,2021.99,3117.10,3080.00,3313.99,500.52,488.28,40.43,0000 0000 0000 0000 000000
2014-08-17 13:00:23,0.00,0.77,0.00,26.38,30.92,33.19,9.43,40.58,1010.09,2021.99,3117.12,3080.00,3313.99,500.02,487.98,40.47,0000 0000 0000 0000 000000